Date String (YYYY-MM-DD hh:mm:ss) UTC,Instrument flags,absolute air pressure of the measurement (hPa),sample flow rate (lpm),inlet stack bypass flow (lpm),air temperature of the measurement (°C),ambient temperature measured by the external sensor (°C),aerosol sample conditioner tube jacket temperature (°C),OPC LED temperature (°C),internal box temperature (°C),relative humidity of the measurement (%),span deviation,mass concentration of particles derived from Lorenz-Mie calculation of OPC scattering (μg/m³),mass concentration of particles derived from Lorenz-Mie calculation of OPC scattering (μg/m³),mass concentration of particles derived from Lorenz-Mie calculation of OPC scattering (μg/m³)
DateTimeUTC,F1_M11,P_M11,Q1_M11,Q2_M11,T1_M11,T2_M11,T3_M11,T4_M11,T5_M11,U1_M11,ZSPAN_M11,X0_M11,X2_M11,X1_M11
2023-06-01 16:00:00,SystemResetWarning,0826.3,5.00,000.00,029.7,028.2,000.0,038.0,031.3,29.4,0001.8,0016.25,0006.07,0004.73
2023-06-01 16:01:00,SystemResetWarning,0826.3,4.99,000.00,029.7,028.2,000.0,038.0,031.3,29.5,0001.8,0015.67,0006.07,0004.72
2023-06-01 16:02:00,SystemResetWarning,0826.3,5.00,000.00,029.7,028.2,000.0,038.0,031.3,29.9,0001.3,0014.45,0005.96,0004.70
2023-06-01 16:03:00,SystemResetWarning,0826.3,5.00,000.00,029.7,028.2,000.0,038.0,031.3,29.9,0000.8,0013.80,0005.93,0004.71
2023-06-01 16:04:00,SystemResetWarning,0826.3,5.00,000.00,029.7,028.2,000.0,038.0,031.3,29.7,0000.5,0013.45,0005.97,0004.72
2023-06-01 16:05:00,SystemResetWarning,0826.2,5.00,000.00,029.7,028.2,000.0,038.0,031.3,29.4,0000.2,0013.19,0005.97,0004.73
2023-06-01 16:06:00,SystemResetWarning,0826.3,5.00,000.00,029.7,028.2,000.0,038.0,031.3,29.4,0000.5,0012.61,0005.94,0004.75
2023-06-01 16:07:00,SystemResetWarning,0826.2,5.00,000.00,029.7,028.2,000.0,038.1,031.3,29.4,0000.4,0012.64,0005.95,0004.76
2023-06-01 16:08:00,SystemResetWarning,0826.2,5.00,000.00,029.7,028.2,000.0,038.1,031.3,29.6,-000.3,0012.49,0005.97,0004.77
2023-06-01 16:09:00,SystemResetWarning,0826.2,5.01,000.00,029.7,028.2,000.0,038.1,031.3,29.5,-000.1,0012.38,0005.94,0004.75
2023-06-01 16:10:00,SystemResetWarning,0826.2,5.00,000.00,029.7,028.2,000.0,038.1,031.3,29.4,-000.3,0013.61,0005.97,0004.75
2023-06-01 16:11:00,SystemResetWarning,0826.2,4.99,000.00,029.7,028.2,000.0,038.1,031.3,29.1,-000.4,0013.61,0005.97,0004.75
2023-06-01 16:12:00,SystemResetWarning,0826.2,4.99,000.00,029.7,028.2,000.0,038.1,031.3,28.7,-000.0,0012.67,0005.88,0004.72
2023-06-01 16:13:00,SystemResetWarning,0826.2,5.00,000.00,029.7,028.2,000.0,038.1,031.3,28.5,-000.1,0013.02,0005.85,0004.70
2023-06-01 16:14:00,SystemResetWarning,0826.2,4.99,000.00,029.7,028.2,000.0,038.1,031.3,28.0,0000.0,0013.60,0005.85,0004.68
2023-06-01 16:15:00,SystemResetWarning,0826.2,5.00,000.00,029.7,028.2,000.0,038.1,031.3,28.4,0000.0,0014.06,0005.79,0004.66
2023-06-01 16:16:00,SystemResetWarning,0826.2,5.00,000.00,029.7,028.2,000.0,038.1,031.3,28.7,0000.0,0014.10,0005.73,0004.64
2023-06-01 16:17:00,SystemResetWarning,0826.1,5.00,000.00,029.7,028.2,000.0,038.1,031.3,29.5,0000.0,0014.40,0005.70,0004.61
2023-06-01 16:18:00,SystemResetWarning,0826.1,4.99,000.00,029.7,028.2,000.0,038.1,031.3,29.5,0000.0,0014.35,0005.69,0004.57
2023-06-01 16:19:00,SystemResetWarning,0826.1,5.00,000.00,029.7,028.2,000.0,038.1,031.3,29.3,0000.0,0015.32,0005.64,0004.56
2023-06-01 16:20:00,SystemResetWarning,0826.0,5.00,000.00,029.7,028.2,000.0,038.1,031.3,29.7,0000.1,0015.56,0005.62,0004.55
2023-06-01 16:21:00,SystemResetWarning,0826.0,5.00,000.00,029.7,028.1,000.0,038.1,031.3,29.4,0000.6,0014.65,0005.69,0004.55
2023-06-01 16:22:00,SystemResetWarning,0826.0,5.00,000.00,029.7,028.1,000.0,038.1,031.3,29.5,0000.9,0014.38,0005.68,0004.53
2023-06-01 16:23:00,SystemResetWarning,0825.9,5.00,000.00,029.7,028.2,000.0,038.1,031.3,29.8,0001.3,0014.27,0005.67,0004.52
2023-06-01 16:24:00,SystemResetWarning,0825.9,5.00,000.00,029.7,028.2,000.0,038.1,031.3,30.0,0001.4,0013.59,0005.65,0004.51
2023-06-01 16:25:00,SystemResetWarning,0825.9,5.01,000.00,029.7,028.2,000.0,038.1,031.3,30.0,0001.5,0013.09,0005.66,0004.51
2023-06-01 16:26:00,SystemResetWarning,0825.8,5.00,000.00,029.7,028.2,000.0,038.1,031.3,29.8,0001.9,0012.43,0005.64,0004.48
2023-06-01 16:27:00,SystemResetWarning,0825.9,4.99,000.00,029.7,028.2,000.0,038.1,031.4,29.9,0002.0,0012.23,0005.61,0004.44
2023-06-01 16:28:00,SystemResetWarning,0825.9,4.99,000.00,029.8,028.2,000.0,038.1,031.4,30.3,0002.3,0011.84,0005.58,0004.41
2023-06-01 16:29:00,SystemResetWarning,0825.9,4.99,000.00,029.8,028.3,000.0,038.1,031.4,30.1,0002.5,0012.48,0005.55,0004.38
2023-06-01 16:30:00,SystemResetWarning,0825.9,5.00,000.00,029.8,028.3,000.0,038.1,031.4,29.7,0002.7,0011.45,0005.54,0004.34
2023-06-01 16:31:00,SystemResetWarning,0825.9,5.00,000.00,029.8,028.3,000.0,038.1,031.4,29.5,0001.9,0010.84,0005.51,0004.31
2023-06-01 16:32:00,SystemResetWarning,0825.9,5.00,000.00,029.8,028.3,000.0,038.2,031.4,29.2,0000.0,0011.39,0005.39,0004.26
2023-06-01 16:33:00,SystemResetWarning,0825.9,5.00,000.00,029.8,028.4,000.0,038.2,031.5,29.7,0000.0,0011.63,0005.29,0004.22
2023-06-01 16:34:00,SystemResetWarning,0825.9,5.00,000.00,029.8,028.4,000.0,038.2,031.5,30.1,0000.0,0011.74,0005.30,0004.19
2023-06-01 16:35:00,SystemResetWarning,0825.9,5.00,000.00,029.8,028.4,000.0,038.2,031.5,29.8,0000.0,0012.21,0005.32,0004.16
2023-06-01 16:36:00,SystemResetWarning,0826.0,5.01,000.00,029.9,028.4,000.0,038.2,031.5,30.2,0000.0,0012.12,0005.28,0004.14
2023-06-01 16:37:00,SystemResetWarning,0825.9,5.00,000.00,029.9,028.4,000.0,038.2,031.5,29.7,0000.0,0012.51,0005.24,0004.13
2023-06-01 16:38:00,SystemResetWarning,0825.9,5.00,000.00,029.9,028.4,000.0,038.2,031.5,29.8,0000.0,0013.61,0005.21,0004.13
2023-06-01 16:39:00,SystemResetWarning,0826.0,5.00,000.00,029.9,028.4,000.0,038.2,031.5,29.6,0000.0,0013.55,0005.20,0004.14
2023-06-01 16:40:00,SystemResetWarning,0825.9,4.99,000.00,029.9,028.4,000.0,038.2,031.5,30.1,0000.0,0012.92,0005.23,0004.13
2023-06-01 16:41:00,SystemResetWarning,0825.9,5.00,000.00,029.9,028.4,000.0,038.2,031.5,30.2,0000.0,0012.92,0005.24,0004.14
2023-06-01 16:42:00,SystemResetWarning,0825.9,5.01,000.00,029.9,028.4,000.0,038.2,031.5,30.1,0000.0,0013.52,0005.28,0004.16
2023-06-01 16:43:00,SystemResetWarning,0825.9,5.00,000.00,029.9,028.4,000.0,038.2,031.5,29.7,0000.0,0013.22,0005.37,0004.19
2023-06-01 16:44:00,SystemResetWarning,0825.9,5.01,000.00,029.9,028.4,000.0,038.2,031.5,30.0,0000.0,0013.26,0005.44,0004.21
2023-06-01 16:45:00,SystemResetWarning,0825.9,5.00,000.00,029.9,028.4,000.0,038.3,031.5,29.9,0000.0,0013.42,0005.43,0004.24
2023-06-01 16:46:00,SystemResetWarning,0825.9,5.00,000.00,029.9,028.4,000.0,038.3,031.5,29.4,0000.0,0013.17,0005.47,0004.27
2023-06-01 16:47:00,SystemResetWarning,0825.9,4.99,000.00,029.9,028.4,000.0,038.3,031.5,29.9,0001.4,0014.08,0005.52,0004.31
2023-06-01 16:48:00,SystemResetWarning,0825.9,5.00,000.00,029.9,028.4,000.0,038.3,031.5,30.6,0002.1,0014.34,0005.60,0004.33
2023-06-01 16:49:00,SystemResetWarning,0825.9,5.01,000.00,029.9,028.4,000.0,038.3,031.5,30.0,0001.8,0013.44,0005.63,0004.37
2023-06-01 16:50:00,SystemResetWarning,0825.9,5.00,000.00,029.9,028.4,000.0,038.3,031.5,29.8,0001.9,0013.70,0005.71,0004.42
2023-06-01 16:51:00,SystemResetWarning,0825.9,4.99,000.00,029.9,028.4,000.0,038.3,031.5,30.0,0002.5,0014.42,0005.74,0004.47
2023-06-01 16:52:00,SystemResetWarning,0825.9,5.00,000.00,029.9,028.4,000.0,038.3,031.5,30.2,0002.4,0014.83,0005.78,0004.53
2023-06-01 16:53:00,SystemResetWarning,0825.9,5.01,000.00,029.9,028.4,000.0,038.3,031.5,30.7,0002.8,0014.58,0005.81,0004.56
2023-06-01 16:54:00,SystemResetWarning,0825.9,5.00,000.00,029.9,028.4,000.0,038.3,031.5,30.1,0002.9,0014.58,0005.86,0004.60
2023-06-01 16:55:00,SystemResetWarning,0825.9,5.01,000.00,029.9,028.4,000.0,038.3,031.5,30.1,0003.1,0014.70,0005.90,0004.66
2023-06-01 16:56:00,SystemResetWarning,0825.9,5.01,000.00,029.9,028.3,000.0,038.3,031.5,30.2,0002.8,0014.43,0005.95,0004.71
2023-06-01 16:57:00,SystemResetWarning,0825.9,4.98,000.00,029.9,028.4,000.0,038.3,031.5,30.3,0002.4,0014.53,0005.99,0004.75
2023-06-01 16:58:00,SystemResetWarning,0825.9,4.99,000.00,029.9,028.4,000.0,038.3,031.5,30.7,0001.6,0014.20,0006.06,0004.79
2023-06-01 16:59:00,SystemResetWarning,0825.9,5.00,000.00,029.9,028.4,000.0,038.3,031.5,30.8,0001.1,0013.85,0006.11,0004.83
